DCM6021 KPSP-KMDW

Flight info

Callsign DCM6021
Flight time N/A
Altitude 45000
Route HWRRD1 EED DCT KRINA Q168 JASSE Q90 NAVJO DCT WOHCI DCT DAAYE DCT PUB DCT OATHE DCT HLC DCT STJ DCT IRK ENDEE8
Aircraft C750/M-SBDE3FGHRWXY/S

Departure

Time N/A
Airport Palm Springs International Airport (KPSP)

Arrival

Time 2026-05-05 02:02
Airport Chicago Midway International Airport (KMDW)
Time Latitude Longitude Altitude Speed Heading
2026-05-05 00:29 38.49930 -103.49363 44641 ft 610 kts 70°
2026-05-05 00:29 38.52154 -103.38965 44620 ft 606 kts 70°
2026-05-05 00:30 38.54370 -103.28569 44630 ft 606 kts 70°
2026-05-05 00:30 38.56572 -103.18174 44640 ft 606 kts 70°
2026-05-05 00:31 38.58768 -103.07761 44641 ft 604 kts 70°
2026-05-05 00:31 38.60946 -102.97391 44640 ft 604 kts 71°
2026-05-05 00:32 38.63116 -102.87000 44638 ft 604 kts 71°
2026-05-05 00:32 38.65264 -102.76670 44653 ft 604 kts 71°
2026-05-05 00:33 38.67405 -102.66321 44634 ft 601 kts 71°
2026-05-05 00:33 38.69539 -102.55960 44635 ft 601 kts 71°
2026-05-05 00:34 38.71661 -102.45601 44632 ft 601 kts 71°
2026-05-05 00:34 38.73776 -102.35234 44630 ft 602 kts 71°
2026-05-05 00:35 38.75883 -102.24843 44632 ft 603 kts 71°
2026-05-05 00:35 38.77984 -102.14436 44626 ft 603 kts 71°
2026-05-05 00:36 38.80063 -102.04088 44659 ft 603 kts 71°
2026-05-05 00:36 38.82151 -101.93643 44623 ft 604 kts 71°
2026-05-05 00:37 38.84229 -101.83192 44618 ft 605 kts 72°
2026-05-05 00:37 38.86683 -101.72909 44623 ft 601 kts 66°
2026-05-05 00:38 38.89469 -101.62797 44629 ft 602 kts 66°
2026-05-05 00:38 38.92129 -101.52595 44634 ft 602 kts 66°
2026-05-05 00:39 38.94878 -101.42417 44640 ft 603 kts 66°
2026-05-05 00:39 38.97531 -101.32270 44640 ft 603 kts 67°
2026-05-05 00:40 39.00230 -101.22104 44635 ft 600 kts 67°
2026-05-05 00:40 39.02891 -101.11924 44656 ft 600 kts 67°
2026-05-05 00:41 39.05557 -101.01748 44687 ft 601 kts 67°
2026-05-05 00:41 39.08210 -100.91542 44727 ft 600 kts 68°
2026-05-05 00:42 39.10856 -100.81342 44727 ft 600 kts 67°
2026-05-05 00:42 39.13482 -100.71169 44732 ft 600 kts 68°
2026-05-05 00:43 39.16109 -100.60950 44709 ft 600 kts 68°
2026-05-05 00:43 39.18287 -100.52454 44697 ft 600 kts 68°
2026-05-05 00:44 39.20893 -100.42235 44691 ft 600 kts 68°
2026-05-05 00:44 39.23495 -100.32001 44683 ft 600 kts 68°
2026-05-05 00:45 39.26012 -100.21735 44670 ft 602 kts 72°
2026-05-05 00:45 39.27667 -100.11108 44695 ft 604 kts 77°
2026-05-05 00:46 39.29591 -99.98770 44833 ft 601 kts 75°
2026-05-05 00:46 39.30946 -99.89996 45045 ft 599 kts 76°
2026-05-05 00:46 39.31722 -99.84693 45167 ft 598 kts 76°
2026-05-05 00:47 39.32535 -99.79424 45317 ft 597 kts 75°
2026-05-05 00:47 39.33367 -99.74160 45437 ft 597 kts 75°
2026-05-05 00:47 39.34168 -99.68890 45558 ft 597 kts 76°
2026-05-05 00:47 39.34943 -99.63627 45679 ft 597 kts 76°
2026-05-05 00:48 39.35732 -99.58369 45799 ft 596 kts 75°
2026-05-05 00:48 39.36527 -99.53186 45921 ft 596 kts 75°
2026-05-05 00:48 39.37321 -99.47935 46043 ft 595 kts 76°
2026-05-05 00:48 39.38097 -99.42677 46185 ft 595 kts 76°
2026-05-05 00:49 39.38873 -99.37425 46297 ft 594 kts 76°
2026-05-05 00:49 39.39657 -99.32188 46422 ft 593 kts 75°
2026-05-05 00:49 39.40438 -99.26950 46546 ft 593 kts 76°
2026-05-05 00:49 39.41207 -99.21717 46658 ft 592 kts 76°
2026-05-05 00:50 39.41974 -99.16468 46683 ft 594 kts 76°
2026-05-05 00:50 39.43524 -99.05927 46675 ft 597 kts 76°
2026-05-05 00:51 39.45058 -98.95341 46678 ft 600 kts 76°
2026-05-05 00:51 39.46586 -98.84778 46672 ft 602 kts 76°
2026-05-05 00:52 39.48118 -98.74093 46672 ft 604 kts 76°
2026-05-05 00:52 39.49641 -98.63397 46673 ft 605 kts 76°
2026-05-05 00:53 39.51160 -98.52673 46679 ft 605 kts 76°
2026-05-05 00:53 39.52665 -98.41953 46672 ft 605 kts 76°
2026-05-05 00:54 39.54162 -98.31227 46659 ft 604 kts 76°
2026-05-05 00:54 39.55645 -98.20520 46665 ft 604 kts 76°
2026-05-05 00:55 39.57121 -98.09798 46685 ft 604 kts 76°
2026-05-05 00:55 39.58584 -97.99083 46687 ft 604 kts 76°
2026-05-05 00:56 39.60028 -97.88436 46693 ft 602 kts 76°
2026-05-05 00:56 39.61469 -97.77735 46696 ft 602 kts 76°
2026-05-05 00:57 39.62898 -97.67046 46702 ft 602 kts 76°
2026-05-05 00:57 39.64318 -97.56343 46696 ft 600 kts 77°
2026-05-05 00:58 39.65725 -97.45668 46681 ft 600 kts 77°
2026-05-05 00:58 39.67112 -97.35060 46682 ft 600 kts 77°
2026-05-05 00:59 39.68497 -97.24393 46685 ft 599 kts 77°
2026-05-05 00:59 39.69875 -97.13700 46686 ft 600 kts 77°
2026-05-05 01:00 39.71241 -97.03013 46686 ft 600 kts 77°
2026-05-05 01:00 39.72598 -96.92324 46695 ft 600 kts 77°
2026-05-05 01:01 39.73945 -96.81622 46710 ft 599 kts 77°
2026-05-05 01:01 39.75274 -96.70989 46713 ft 599 kts 77°
2026-05-05 01:02 39.76600 -96.60301 46713 ft 599 kts 77°
2026-05-05 01:02 39.77917 -96.49597 46693 ft 599 kts 77°
2026-05-05 01:03 39.79221 -96.38914 46694 ft 597 kts 77°
2026-05-05 01:03 39.80514 -96.28244 46697 ft 597 kts 77°
2026-05-05 01:04 39.81788 -96.17638 46682 ft 597 kts 77°
2026-05-05 01:04 39.83692 -96.01633 46679 ft 597 kts 77°
2026-05-05 01:05 39.84950 -95.90952 46660 ft 597 kts 77°
2026-05-05 01:05 39.86196 -95.80282 46661 ft 596 kts 77°
2026-05-05 01:06 39.87433 -95.69604 46675 ft 596 kts 78°
2026-05-05 01:06 39.88664 -95.58894 46658 ft 597 kts 78°
2026-05-05 01:07 39.89872 -95.48281 46653 ft 596 kts 78°
2026-05-05 01:07 39.91080 -95.37594 46656 ft 596 kts 78°
2026-05-05 01:08 39.92277 -95.26910 46662 ft 595 kts 78°
2026-05-05 01:08 39.93463 -95.16235 46666 ft 594 kts 78°
2026-05-05 01:09 39.94637 -95.05565 46669 ft 594 kts 78°
2026-05-05 01:09 39.95794 -94.94971 46674 ft 594 kts 78°
2026-05-05 01:10 39.96748 -94.84291 46660 ft 592 kts 81°
2026-05-05 01:10 39.97657 -94.73609 46661 ft 592 kts 81°
2026-05-05 01:11 39.98534 -94.62921 46657 ft 592 kts 81°
2026-05-05 01:11 39.99414 -94.52239 46666 ft 591 kts 81°
2026-05-05 01:12 40.00274 -94.41581 46667 ft 591 kts 81°
2026-05-05 01:12 40.01128 -94.30926 46666 ft 590 kts 81°
2026-05-05 01:13 40.01966 -94.20336 46661 ft 590 kts 81°
2026-05-05 01:13 40.02799 -94.09673 46654 ft 590 kts 81°
2026-05-05 01:14 40.03622 -93.99024 46656 ft 590 kts 81°
2026-05-05 01:14 40.04435 -93.88362 46659 ft 590 kts 81°
2026-05-05 01:15 40.05240 -93.77697 46652 ft 590 kts 81°
2026-05-05 01:15 40.06034 -93.67029 46653 ft 590 kts 81°
2026-05-05 01:16 40.06819 -93.56350 46662 ft 590 kts 81°
2026-05-05 01:16 40.07588 -93.45750 46659 ft 590 kts 81°
2026-05-05 01:17 40.08352 -93.35079 46661 ft 590 kts 82°
2026-05-05 01:17 40.09108 -93.24400 46662 ft 590 kts 82°
2026-05-05 01:18 40.09852 -93.13730 46663 ft 590 kts 82°
2026-05-05 01:18 40.10587 -93.03054 46677 ft 590 kts 82°
2026-05-05 01:19 40.11312 -92.92375 46659 ft 590 kts 82°
2026-05-05 01:19 40.12027 -92.81701 46666 ft 589 kts 82°
2026-05-05 01:20 40.12732 -92.71028 46665 ft 589 kts 82°
2026-05-05 01:20 40.13452 -92.60438 46648 ft 587 kts 80°
2026-05-05 01:21 40.15263 -92.50121 46664 ft 580 kts 70°
2026-05-05 01:21 40.17400 -92.39933 46667 ft 582 kts 72°
2026-05-05 01:22 40.19347 -92.29666 46668 ft 581 kts 71°
2026-05-05 01:22 40.21426 -92.19517 46661 ft 581 kts 72°
2026-05-05 01:23 40.23386 -92.09257 46568 ft 582 kts 72°
2026-05-05 01:23 40.24400 -92.04153 45710 ft 575 kts 71°
2026-05-05 01:23 40.25401 -91.99134 44964 ft 563 kts 72°
2026-05-05 01:24 40.26353 -91.94208 44207 ft 553 kts 72°
2026-05-05 01:24 40.27282 -91.89350 43473 ft 543 kts 72°
2026-05-05 01:24 40.28205 -91.84600 42757 ft 533 kts 71°
2026-05-05 01:24 40.29107 -91.79990 42062 ft 525 kts 71°
2026-05-05 01:25 40.29995 -91.75391 41380 ft 517 kts 71°
2026-05-05 01:25 40.30875 -91.70786 40705 ft 512 kts 71°
2026-05-05 01:25 40.31734 -91.66318 40039 ft 512 kts 71°
2026-05-05 01:25 40.32609 -91.61782 39369 ft 514 kts 71°
2026-05-05 01:26 40.33483 -91.57212 38693 ft 516 kts 71°
2026-05-05 01:26 40.34354 -91.52628 37957 ft 518 kts 71°
2026-05-05 01:26 40.35219 -91.48069 37270 ft 512 kts 71°
2026-05-05 01:26 40.36124 -91.43574 36584 ft 507 kts 68°
2026-05-05 01:27 40.37368 -91.39268 35933 ft 503 kts 62°
2026-05-05 01:27 40.38749 -91.35059 35268 ft 502 kts 61°
2026-05-05 01:27 40.40104 -91.30902 34616 ft 502 kts 63°
2026-05-05 01:27 40.41407 -91.26642 33952 ft 502 kts 64°
2026-05-05 01:28 40.42695 -91.22383 33243 ft 501 kts 64°
2026-05-05 01:28 40.44031 -91.18144 32583 ft 503 kts 63°
2026-05-05 01:28 40.45387 -91.13888 31917 ft 506 kts 63°
2026-05-05 01:28 40.46719 -91.09590 31237 ft 508 kts 64°
2026-05-05 01:29 40.48035 -91.05281 30635 ft 503 kts 65°
2026-05-05 01:29 40.49295 -91.01172 30614 ft 468 kts 64°
2026-05-05 01:29 40.50471 -90.97331 30605 ft 439 kts 64°
2026-05-05 01:29 40.51591 -90.93683 30624 ft 427 kts 64°
2026-05-05 01:30 40.53804 -90.86452 30636 ft 429 kts 64°
2026-05-05 01:30 40.56035 -90.79117 30507 ft 445 kts 64°
2026-05-05 01:31 40.57231 -90.75211 30121 ft 474 kts 64°
2026-05-05 01:31 40.58060 -90.72485 29825 ft 493 kts 65°
2026-05-05 01:31 40.59329 -90.68262 29312 ft 496 kts 65°
2026-05-05 01:31 40.60599 -90.64034 28834 ft 497 kts 65°
2026-05-05 01:32 40.61878 -90.59815 28360 ft 495 kts 65°
2026-05-05 01:32 40.63152 -90.55611 27888 ft 493 kts 65°
2026-05-05 01:32 40.64408 -90.51426 27419 ft 490 kts 65°
2026-05-05 01:32 40.65656 -90.47262 26945 ft 487 kts 66°
2026-05-05 01:33 40.66901 -90.43118 26486 ft 484 kts 65°
2026-05-05 01:33 40.68136 -90.39007 26027 ft 481 kts 66°
2026-05-05 01:33 40.69363 -90.34901 25568 ft 478 kts 66°
2026-05-05 01:33 40.70575 -90.30837 25114 ft 475 kts 66°
2026-05-05 01:34 40.71783 -90.26787 24659 ft 473 kts 66°
2026-05-05 01:34 40.72978 -90.22765 24215 ft 470 kts 66°
2026-05-05 01:34 40.74167 -90.18754 23778 ft 467 kts 66°
2026-05-05 01:34 40.75346 -90.14777 23337 ft 465 kts 66°
2026-05-05 01:35 40.76504 -90.10865 22867 ft 462 kts 66°
2026-05-05 01:35 40.77668 -90.06927 22421 ft 459 kts 66°
2026-05-05 01:35 40.78822 -90.03014 21997 ft 456 kts 66°
2026-05-05 01:35 40.79968 -89.99125 21559 ft 453 kts 67°
2026-05-05 01:36 40.81107 -89.95251 21141 ft 451 kts 67°
2026-05-05 01:36 40.82238 -89.91400 20717 ft 448 kts 67°
2026-05-05 01:36 40.83361 -89.87572 20296 ft 446 kts 67°
2026-05-05 01:36 40.84478 -89.83758 19874 ft 443 kts 67°
2026-05-05 01:37 40.85571 -89.80019 19468 ft 441 kts 67°
2026-05-05 01:37 40.86680 -89.76256 19056 ft 437 kts 66°
2026-05-05 01:37 40.88079 -89.72717 18634 ft 432 kts 57°
2026-05-05 01:37 40.89624 -89.69304 18242 ft 430 kts 56°
2026-05-05 01:38 40.91156 -89.65911 17843 ft 428 kts 56°
2026-05-05 01:38 40.92639 -89.62511 17400 ft 425 kts 57°
2026-05-05 01:38 40.94107 -89.59128 17000 ft 422 kts 57°
2026-05-05 01:38 40.95592 -89.55771 16598 ft 420 kts 56°
2026-05-05 01:39 40.97048 -89.52492 16476 ft 420 kts 56°
2026-05-05 01:39 40.98513 -89.49153 16200 ft 418 kts 57°
2026-05-05 01:39 40.99966 -89.45821 15820 ft 416 kts 57°
2026-05-05 01:39 41.01413 -89.42519 15431 ft 413 kts 56°
2026-05-05 01:40 41.02853 -89.39239 15042 ft 410 kts 56°
2026-05-05 01:40 41.04280 -89.35979 14660 ft 408 kts 56°
2026-05-05 01:40 41.05698 -89.32730 14279 ft 406 kts 57°
2026-05-05 01:40 41.07104 -89.29506 13903 ft 403 kts 56°
2026-05-05 01:41 41.08502 -89.26301 13526 ft 401 kts 56°
2026-05-05 01:41 41.09891 -89.23112 13132 ft 398 kts 56°
2026-05-05 01:41 41.11269 -89.19941 12746 ft 395 kts 56°
2026-05-05 01:41 41.12635 -89.16796 12381 ft 392 kts 56°
2026-05-05 01:42 41.13992 -89.13674 12021 ft 390 kts 56°
2026-05-05 01:42 41.15337 -89.10572 11645 ft 386 kts 56°
2026-05-05 01:42 41.16655 -89.07529 11288 ft 383 kts 56°
2026-05-05 01:42 41.17974 -89.04477 10910 ft 373 kts 56°
2026-05-05 01:43 41.19215 -89.01591 10566 ft 347 kts 56°
2026-05-05 01:43 41.20378 -88.98896 10245 ft 326 kts 56°
2026-05-05 01:43 41.21456 -88.96310 9984 ft 313 kts 60°
2026-05-05 01:43 41.22341 -88.93717 9998 ft 309 kts 60°
2026-05-05 01:44 41.23280 -88.91153 10000 ft 308 kts 59°
2026-05-05 01:44 41.24209 -88.88583 10002 ft 308 kts 60°
2026-05-05 01:44 41.25113 -88.85992 10006 ft 309 kts 61°
2026-05-05 01:44 41.26005 -88.83435 10009 ft 308 kts 60°
2026-05-05 01:45 41.26920 -88.80849 10011 ft 314 kts 60°
2026-05-05 01:45 41.27871 -88.78167 9858 ft 316 kts 60°
2026-05-05 01:45 41.28788 -88.75536 9614 ft 314 kts 60°
2026-05-05 01:45 41.29711 -88.72904 9331 ft 313 kts 60°
2026-05-05 01:46 41.30629 -88.70294 9049 ft 311 kts 60°
2026-05-05 01:46 41.31545 -88.67682 8774 ft 311 kts 61°
2026-05-05 01:46 41.32460 -88.65068 8501 ft 310 kts 61°
2026-05-05 01:46 41.33370 -88.62464 8229 ft 309 kts 61°
2026-05-05 01:47 41.34277 -88.59871 7963 ft 310 kts 62°
2026-05-05 01:47 41.35183 -88.57277 7684 ft 308 kts 62°
2026-05-05 01:47 41.36072 -88.54728 7420 ft 308 kts 62°
2026-05-05 01:47 41.36973 -88.52144 7148 ft 306 kts 62°
2026-05-05 01:48 41.38047 -88.49802 6991 ft 286 kts 47°
2026-05-05 01:48 41.39327 -88.47736 7011 ft 289 kts 45°
2026-05-05 01:48 41.40606 -88.45666 7018 ft 289 kts 46°
2026-05-05 01:48 41.41867 -88.43578 7019 ft 290 kts 46°
2026-05-05 01:49 41.43137 -88.41479 7017 ft 290 kts 46°
2026-05-05 01:49 41.44407 -88.39391 7023 ft 290 kts 46°
2026-05-05 01:49 41.45711 -88.37252 6951 ft 299 kts 46°
2026-05-05 01:49 41.47021 -88.35087 6745 ft 300 kts 47°
2026-05-05 01:50 41.48309 -88.32957 6491 ft 298 kts 47°
2026-05-05 01:50 41.49615 -88.30802 6264 ft 300 kts 47°
2026-05-05 01:50 41.50882 -88.28611 6019 ft 292 kts 53°
2026-05-05 01:50 41.51923 -88.26312 6038 ft 291 kts 55°
2026-05-05 01:51 41.52990 -88.24040 6036 ft 288 kts 54°
2026-05-05 01:51 41.54068 -88.21757 6040 ft 292 kts 54°
2026-05-05 01:51 41.55129 -88.19458 6057 ft 292 kts 55°
2026-05-05 01:51 41.56203 -88.17122 6043 ft 293 kts 55°
2026-05-05 01:52 41.57273 -88.14809 6050 ft 294 kts 55°
2026-05-05 01:52 41.58351 -88.12485 6043 ft 295 kts 55°
2026-05-05 01:52 41.59417 -88.10174 6050 ft 292 kts 55°
2026-05-05 01:52 41.60472 -88.07884 6052 ft 293 kts 54°
2026-05-05 01:53 41.61556 -88.05533 6054 ft 293 kts 54°
2026-05-05 01:53 41.62618 -88.03227 6053 ft 291 kts 54°
2026-05-05 01:53 41.63681 -88.00921 6052 ft 293 kts 54°
2026-05-05 01:53 41.64744 -87.98610 6048 ft 291 kts 54°
2026-05-05 01:54 41.65803 -87.96307 6046 ft 290 kts 54°
2026-05-05 01:54 41.66858 -87.94014 6022 ft 300 kts 54°
2026-05-05 01:54 41.67950 -87.91636 5838 ft 300 kts 55°
2026-05-05 01:54 41.69037 -87.89257 5560 ft 298 kts 55°
2026-05-05 01:55 41.70119 -87.86894 5299 ft 298 kts 55°
2026-05-05 01:55 41.71206 -87.84525 5041 ft 298 kts 55°
2026-05-05 01:55 41.72279 -87.82178 4777 ft 295 kts 55°
2026-05-05 01:55 41.73353 -87.79829 4518 ft 295 kts 56°
2026-05-05 01:56 41.74401 -87.77530 4253 ft 282 kts 56°
2026-05-05 01:56 41.75320 -87.75253 3960 ft 278 kts 69°
2026-05-05 01:56 41.75567 -87.72709 3947 ft 275 kts 89°
2026-05-05 01:56 41.75672 -87.70135 4008 ft 274 kts 87°
2026-05-05 01:57 41.75832 -87.67704 3947 ft 255 kts 81°
2026-05-05 01:57 41.76527 -87.65592 3621 ft 240 kts 52°
2026-05-05 01:57 41.77672 -87.64098 3306 ft 221 kts 29°
2026-05-05 01:57 41.79009 -87.63303 3038 ft 204 kts
2026-05-05 01:58 41.80374 -87.63138 2802 ft 192 kts 348°
2026-05-05 01:58 41.81602 -87.63619 2559 ft 181 kts 322°
2026-05-05 01:58 41.82533 -87.64640 2338 ft 169 kts 299°
2026-05-05 01:58 41.83076 -87.65903 2116 ft 138 kts 279°
2026-05-05 01:59 41.83256 -87.66991 1944 ft 107 kts 263°
2026-05-05 01:59 41.83229 -87.67945 1813 ft 99 kts 251°
2026-05-05 01:59 41.83051 -87.68847 1690 ft 101 kts 242°
2026-05-05 01:59 41.82732 -87.69673 1579 ft 98 kts 232°
2026-05-05 02:00 41.82284 -87.70398 1459 ft 106 kts 224°
2026-05-05 02:00 41.81802 -87.71130 1355 ft 106 kts 233°
2026-05-05 02:00 41.81376 -87.71958 1264 ft 108 kts 229°
2026-05-05 02:00 41.80848 -87.72647 1117 ft 110 kts 225°
2026-05-05 02:01 41.80287 -87.73400 1009 ft 117 kts 225°
2026-05-05 02:01 41.79718 -87.74114 836 ft 105 kts 226°
2026-05-05 02:01 41.79176 -87.74798 675 ft 107 kts 229°
2026-05-05 02:01 41.78679 -87.75435 628 ft 75 kts 223°
2026-05-05 02:02 41.78452 -87.75723 634 ft 32 kts 224°
2026-05-05 02:02 41.78309 -87.75902 628 ft 21 kts 223°
2026-05-05 02:02 41.78273 -87.75990 630 ft 5 kts 323°
2026-05-05 02:02 41.78317 -87.75995 625 ft 6 kts 359°
2026-05-05 02:03 41.78362 -87.75997 626 ft 10 kts 358°
2026-05-05 02:03 41.78467 -87.76002 626 ft 17 kts 359°
2026-05-05 02:03 41.78581 -87.76007 626 ft 16 kts 358°
2026-05-05 02:03 41.78675 -87.76012 631 ft 7 kts 354°
2026-05-05 02:04 41.78687 -87.76048 626 ft 6 kts 245°
2026-05-05 02:04 41.78642 -87.76070 626 ft 4 kts 240°
2026-05-05 02:04 41.78656 -87.76084 630 ft 3 kts 358°
2026-05-05 02:04 41.78658 -87.76084 631 ft 0 kts 358°